TimePDT,TemperatureF,Dew PointF,Humidity,Sea Level PressureIn,VisibilityMPH,Wind Direction,Wind SpeedMPH,Gust SpeedMPH,PrecipitationIn,Events,Conditions,WindDirDegrees,DateUTC
12:53 AM,46.9,42.1,83,30.10,10.0,NW,5.8,-,N/A,,Overcast,320,2013-10-03 07:53:00
1:53 AM,48.0,43.0,83,30.13,10.0,NW,3.5,-,N/A,,Overcast,310,2013-10-03 08:53:00
2:53 AM,46.9,43.0,86,30.14,10.0,Calm,Calm,-,N/A,,Scattered Clouds,0,2013-10-03 09:53:00
3:53 AM,43.0,41.0,93,30.17,10.0,WNW,4.6,-,N/A,,Scattered Clouds,290,2013-10-03 10:53:00
4:53 AM,44.1,42.1,93,30.19,10.0,WNW,3.5,-,N/A,,Overcast,290,2013-10-03 11:53:00
5:53 AM,43.0,39.9,89,30.21,10.0,Calm,Calm,-,N/A,,Clear,0,2013-10-03 12:53:00
6:53 AM,41.0,39.9,96,30.23,10.0,NW,3.5,-,N/A,,Scattered Clouds,320,2013-10-03 13:53:00
7:53 AM,43.0,41.0,93,30.25,10.0,Calm,Calm,-,N/A,,Clear,0,2013-10-03 14:53:00
8:53 AM,48.9,42.1,77,30.29,10.0,Calm,Calm,-,N/A,,Clear,0,2013-10-03 15:53:00
9:53 AM,54.0,41.0,62,30.30,10.0,West,8.1,-,N/A,,Partly Cloudy,270,2013-10-03 16:53:00
10:53 AM,57.0,39.9,53,30.30,10.0,NNW,10.4,-,N/A,,Partly Cloudy,340,2013-10-03 17:53:00
11:53 AM,57.9,39.0,49,30.30,10.0,NW,8.1,-,N/A,,Clear,310,2013-10-03 18:53:00
12:53 PM,62.1,37.9,41,30.30,10.0,Variable,4.6,-,N/A,,Partly Cloudy,0,2013-10-03 19:53:00
1:53 PM,63.0,37.9,40,30.30,10.0,North,6.9,-,N/A,,Partly Cloudy,360,2013-10-03 20:53:00
2:53 PM,64.0,37.0,37,30.30,10.0,Calm,Calm,-,N/A,,Clear,0,2013-10-03 21:53:00
3:53 PM,64.9,36.0,34,30.30,10.0,Variable,4.6,-,N/A,,Partly Cloudy,0,2013-10-03 22:53:00
4:53 PM,64.0,36.0,35,30.31,10.0,Calm,Calm,-,N/A,,Clear,0,2013-10-03 23:53:00
5:53 PM,63.0,35.1,35,30.32,10.0,Calm,Calm,-,N/A,,Clear,0,2013-10-04 00:53:00
6:53 PM,60.1,39.9,47,30.33,10.0,SSE,6.9,-,N/A,,Clear,160,2013-10-04 01:53:00
7:53 PM,55.9,39.9,55,30.35,10.0,South,4.6,-,N/A,,Clear,170,2013-10-04 02:53:00
9:53 PM,48.9,42.1,77,30.37,10.0,East,3.5,-,N/A,,Clear,100,2013-10-04 04:53:00
10:53 PM,43.0,39.9,89,30.38,10.0,East,3.5,-,N/A,,Clear,80,2013-10-04 05:53:00
11:53 PM,41.0,37.9,89,30.40,9.0,NNW,3.5,-,N/A,,Clear,340,2013-10-04 06:53:00